Regional Weather Roundup
Issued by NWS

Home | Current Version | Previous Version | Text Only | Print | Product List | Glossary Off
Versions: 1 2 3 4 5 6 7 8 9 10 11 12 13 14 15 16 17 18 19 20 21 22 23 24 25 26 27 28 29 30 31 32 33 34 35 36 37 38 39 40 41 42 43 44 45 46 47 48 49 50

000
ASUS43 KLSX 180159
RWRMO

WEATHER SUMMARY FOR MISSOURI
NATIONAL WEATHER SERVICE SPRINGFIELD MO
900 PM CDT WED SEP 17 2014

NOTE: "FAIR" INDICATES FEW OR NO CLOUDS BELOW 12,000 FEET WITH NO
       SIGNIFICANT WEATHER AND/OR OBSTRUCTIONS TO VISIBILITY.
       CURRENT SKY AND/OR WEATHER CONDITIONS ARE NOT AVAILABLE FOR
       CHILLICOTHE AND FARMINGTON.

MOZ001>031-035>038-043-044-053-054-180300-
...NORTHERN AND WESTERN MISSOURI...

CITY           SKY/WX    TMP DP  RH WIND       PRES   REMARKS
KANSAS CTY INT CLEAR     68  64  87 E8        29.93R
KANSAS C DTWN  CLEAR     68  65  90 E6        29.92R
LEE`S SUMMIT   MOCLDY    68  65  90 E8        29.93R
ST JOSEPH      PTCLDY    66  64  93 SE3       29.93R
KIRKSVILLE     CLOUDY    64  60  87 E5        29.99R

$$
MOZ066>068-077>081-088>096-101>105-180300-
...SOUTHWEST MISSOURI...

CITY           SKY/WX    TMP DP  RH WIND       PRES   REMARKS
SPRINGFIELD    CLEAR     66  63  90 E3        29.91R
JOPLIN         CLEAR     68  62  81 S7        29.90R

$$
MOZ032>034-039>042-045>050-055>058-069>072-180300-
...CENTRAL MISSOURI...

CITY           SKY/WX    TMP DP  RH WIND       PRES   REMARKS
COLUMBIA       CLOUDY    63  61  93 NE12      29.96S FOG
JEFFERSON CITY CLOUDY    64  61  90 NE6       29.95R
ROLLA          FOG       62  60  93 SE8       29.93S VSB 1/2
SEDALIA        CLOUDY    66  63  90 E8        29.95R
OSAGE BEACH    CLOUDY    68  63  83 E5        29.93R

$$
MOZ051-052-059>065-180300-
...EAST CENTRAL MISSOURI...

CITY           SKY/WX    TMP DP  RH WIND       PRES   REMARKS
ST LOUIS INTL  CLOUDY    62  55  77 E8        29.98R
SPIRIT OF STL  CLOUDY    62  60  93 E3        29.96R FOG
ST CHARLES     CLOUDY    60  56  86 E5        29.98R

$$
MOZ072>076-082>087-097>100-106>115-180300-
...SOUTH CENTRAL AND SOUTHEAST MISSOURI...

CITY           SKY/WX    TMP DP  RH WIND       PRES   REMARKS
CAPE GIRARDEAU CLEAR     59  57  93 CALM      29.96R
FARMINGTON     CLOUDY    59  57  94 S3        29.99R
POPLAR BLUFF   CLOUDY    63  58  83 CALM      29.96R
WEST PLAINS    MOCLDY    63  61  93 E7        29.96R

$$


USA.gov is the U.S. government's official web portal to all federal, state and local government web resources and services.